EW2295 Weather Reports


Display with metric or nautical units.
time (UTC)temp
F
wind
direction
speed
MPH
gust
MPH
rain 1hr
in
rain 24hr
in
rain mn
in
humidity
%
barometer
mb
20260503201042 60 0 0.0 0.0 0.00 0.04 0.00 79 1013.2
20260503200545 60 0 0.0 0.0 0.00 0.04 0.00 79 1013.2
20260503200049 60 0 0.0 0.0 0.00 0.04 0.00 78 1013.2
20260503195544 60 0 0.0 0.0 0.00 0.04 0.00 78 1013.2
20260503195045 60 0 0.0 0.0 0.00 0.04 0.00 79 1013.1
20260503194550 60 0 0.0 0.0 0.00 0.04 0.00 79 1013.2
20260503194046 60 0 0.0 0.0 0.00 0.04 0.00 79 1013.1
20260503193546 60 0 0.0 0.0 0.00 0.04 0.00 78 1013.1
20260503193058 61 0 0.0 0.0 0.00 0.04 0.00 78 1012.9
20260503192545 61 0 0.0 0.0 0.00 0.04 0.00 78 1013.0
20260503192045 61 0 0.0 0.0 0.00 0.04 0.00 78 1012.9
20260503191553 61 0 0.0 0.0 0.00 0.04 0.00 78 1012.9
20260503191043 61 0 0.0 0.0 0.00 0.04 0.00 77 1012.9
20260503190549 61 0 0.0 0.0 0.00 0.04 0.00 77 1012.8
20260503190056 61 0 0.0 0.0 0.00 0.04 0.00 78 1012.9
20260503185542 61 0 0.0 0.0 0.00 0.09 0.00 78 1012.8
20260503185043 61 0 0.0 0.0 0.00 0.09 0.00 78 1012.8
20260503184603 61 0 0.0 0.0 0.00 0.09 0.00 78 1012.7
20260503184044 61 0 0.0 0.0 0.00 0.09 0.00 78 1012.6
20260503183544 61 0 0.0 0.0 0.00 0.09 0.00 78 1012.5
20260503183053 61 0 0.0 0.0 0.00 0.09 0.00 78 1012.5
20260503182548 61 0 0.0 0.0 0.00 0.09 0.00 77 1012.5
20260503182046 61 0 0.0 4.0 0.00 0.09 0.00 77 1012.4
20260503181552 61 0 0.0 8.0 0.00 0.09 0.00 76 1012.4
20260503181047 62 0 0.0 8.0 0.00 0.09 0.00 76 1012.4
20260503180546 62 239 0.0 8.0 0.00 0.09 0.00 76 1012.3
20260503180049 62 215 0.0 8.0 0.00 0.09 0.00 76 1012.3
20260503175545 62 0 0.0 11.0 0.00 0.09 0.00 76 1012.4
20260503175045 62 0 1.0 11.0 0.00 0.09 0.00 76 1012.4
20260503174612 62 0 0.0 14.0 0.00 0.09 0.00 76 1012.4
20260503174045 62 0 1.0 14.0 0.00 0.09 0.00 76 1012.5
20260503173545 62 228 3.0 12.0 0.00 0.09 0.00 75 1012.5
20260503173050 62 249 0.0 15.0 0.00 0.09 0.00 75 1012.5
20260503172543 62 0 3.0 15.0 0.00 0.09 0.00 74 1012.5
20260503172042 62 0 2.0 11.0 0.00 0.09 0.00 74 1012.5
20260503171547 62 271 2.0 14.0 0.00 0.09 0.00 74 1012.4
20260503171045 62 0 0.0 14.0 0.00 0.09 0.00 74 1012.3
20260503170545 63 0 3.0 14.0 0.00 0.09 0.00 73 1012.3
20260503150542 66 188 0.0 10.0 0.00 0.09 0.00 60 1012.0
20260503131045 71 0 2.0 15.0 0.00 0.09 0.00 46 1012.0
20260503130545 71 194 3.0 15.0 0.00 0.09 0.00 46 1012.0
20260503110542 75 227 7.0 18.0 0.00 0.09 0.00 35 1012.0
20260503100106 71 0 1.0 10.0 0.00 0.09 0.00 44 1012.4
20260503081556 67 191 3.0 11.0 0.00 0.09 0.00 56 1012.8
20260503081044 66 178 2.0 11.0 0.00 0.09 0.00 57 1012.7
20260503080544 66 138 2.0 10.0 0.00 0.09 0.00 57 1012.8
20260503072545 64 194 2.0 13.0 0.00 0.09 0.00 64 1012.5
20260503072046 63 239 3.0 12.0 0.00 0.09 0.00 66 1012.7
20260503071552 63 191 2.0 11.0 0.00 0.09 0.00 69 1012.7
20260503071041 62 0 1.0 9.0 0.00 0.09 0.00 76 1012.7
20260503070546 61 0 1.0 9.0 0.00 0.09 0.00 83 1012.7
20260503055041 54 0 0.0 0.0 0.00 0.09 0.00 96 1012.8
20260503054552 54 0 0.0 0.0 0.00 0.09 0.00 96 1012.8
20260503054044 54 0 0.0 0.0 0.00 0.09 0.00 96 1012.8
20260503053541 54 0 0.0 0.0 0.00 0.09 0.00 96 1012.8
20260503053055 53 0 0.0 0.0 0.00 0.09 0.00 96 1012.7
20260503052546 53 0 0.0 0.0 0.00 0.09 0.00 96 1012.7
20260503052045 53 0 0.0 0.0 0.00 0.09 0.00 96 1012.7
20260503051555 53 0 0.0 0.0 0.00 0.09 0.00 96 1012.7
20260503051043 53 0 0.0 0.0 0.00 0.09 0.00 96 1012.6
20260503050542 53 0 0.0 0.0 0.00 0.09 0.00 96 1012.5
20260503045542 53 0 0.0 0.0 0.00 0.09 0.00 96 1012.5
20260503045041 53 0 0.0 0.0 0.00 0.09 0.00 96 1012.5
20260503044558 53 0 0.0 0.0 0.00 0.09 0.00 96 1012.6
20260503044042 53 0 0.0 0.0 0.00 0.09 0.00 96 1012.7
20260503043545 53 0 0.0 0.0 0.00 0.09 0.00 96 1012.8
20260503043059 54 0 0.0 0.0 0.00 0.09 0.00 96 1012.7
20260503042545 54 0 0.0 0.0 0.00 0.09 0.00 96 1012.8
20260503042042 54 0 0.0 0.0 0.00 0.09 0.00 96 1012.9
20260503041558 53 0 0.0 0.0 0.00 0.09 0.00 96 1012.8
20260503041041 53 0 0.0 0.0 0.00 0.09 0.00 96 1012.9
20260503040543 54 0 0.0 0.0 0.00 0.09 0.00 96 1013.0
20260503040100 54 0 0.0 0.0 0.00 0.09 0.00 96 1013.1
20260503035542 54 0 0.0 0.0 0.00 0.09 0.00 96 1013.0
20260503035042 54 0 0.0 0.0 0.00 0.09 0.00 96 1013.0
20260503034611 54 0 0.0 0.0 0.00 0.09 0.00 96 1013.0
20260503034044 54 0 0.0 0.0 0.00 0.09 0.00 96 1013.1
20260503033545 53 0 0.0 0.0 0.00 0.09 0.00 96 1013.1
20260503033059 53 0 0.0 0.0 0.00 0.09 0.00 96 1013.1
20260503032542 54 0 0.0 0.0 0.00 0.09 0.00 96 1013.4
20260503032044 54 0 0.0 0.0 0.00 0.09 0.00 96 1013.3
20260503031556 54 0 0.0 0.0 0.00 0.09 0.00 96 1013.3
20260503031046 54 0 0.0 0.0 0.00 0.09 0.00 96 1013.4
20260503030545 54 0 0.0 0.0 0.00 0.09 0.00 96 1013.4
20260503030052 54 0 0.0 0.0 0.00 0.09 0.00 96 1013.4
20260503025547 54 0 0.0 0.0 0.00 0.09 0.00 96 1013.5
20260503025047 54 0 0.0 0.0 0.00 0.09 0.00 96 1013.5
20260503024552 54 0 0.0 0.0 0.00 0.09 0.00 95 1013.5
20260503024047 54 0 0.0 0.0 0.00 0.09 0.00 95 1013.5
20260503023546 54 0 0.0 0.0 0.00 0.09 0.00 95 1013.6
20260503023053 54 0 0.0 0.0 0.00 0.09 0.00 95 1013.7
20260503022547 55 0 0.0 0.0 0.00 0.09 0.00 95 1013.7
20260503022050 55 0 0.0 0.0 0.00 0.09 0.00 95 1013.7
20260503021552 55 0 0.0 0.0 0.00 0.09 0.00 95 1013.6
20260503021050 55 0 0.0 0.0 0.00 0.09 0.00 95 1013.7
20260503020547 55 0 0.0 0.0 0.00 0.09 0.00 95 1013.9
20260503020049 55 0 0.0 0.0 0.00 0.09 0.00 95 1013.7
20260503015546 55 0 0.0 0.0 0.00 0.09 0.00 95 1013.8
20260503015049 55 0 0.0 0.0 0.00 0.09 0.00 95 1013.9
20260503014603 55 0 0.0 0.0 0.00 0.09 0.00 95 1013.9
20260503014051 55 0 0.0 0.0 0.00 0.09 0.00 95 1013.8
20260503013546 55 0 0.0 0.0 0.00 0.09 0.00 95 1014.0
20260503013050 55 0 0.0 0.0 0.00 0.09 0.00 95 1014.0
20260503012546 55 0 0.0 0.0 0.00 0.09 0.00 95 1014.2
20260503012046 55 0 0.0 0.0 0.00 0.09 0.00 95 1014.2
20260503011552 55 0 0.0 0.0 0.00 0.09 0.00 95 1014.1
20260503011046 55 0 0.0 0.0 0.00 0.09 0.00 95 1014.4
20260503010547 55 0 0.0 0.0 0.00 0.09 0.00 95 1014.2
20260503010052 55 0 0.0 0.0 0.00 0.09 0.00 95 1014.6
20260503005547 55 0 0.0 0.0 0.00 0.09 0.00 95 1014.4
20260503005047 55 0 0.0 0.0 0.00 0.09 0.00 95 1014.1
20260503004556 55 0 0.0 0.0 0.00 0.09 0.00 95 1014.2
20260503004047 55 0 0.0 0.0 0.00 0.09 0.00 95 1014.1
20260503003546 55 0 0.0 0.0 0.00 0.09 0.00 95 1014.2
20260503003100 55 0 0.0 0.0 0.00 0.09 0.00 95 1014.1
20260503002546 55 0 0.0 0.0 0.00 0.09 0.00 95 1014.3
20260503002047 56 0 0.0 0.0 0.00 0.09 0.00 95 1014.3
20260503001607 56 0 0.0 0.0 0.00 0.09 0.00 95 1014.3
20260503001045 56 0 0.0 0.0 0.00 0.09 0.00 95 1014.4
20260503000546 56 0 0.0 0.0 0.00 0.09 0.00 95 1014.5
20260503000053 56 0 0.0 0.0 0.00 0.09 0.00 95 1014.6
20260502235547 57 0 0.0 0.0 0.00 0.09 0.00 95 1014.7
20260502235047 57 0 0.0 0.0 0.00 0.09 0.00 95 1015.0
20260502234554 57 0 0.0 0.0 0.00 0.09 0.00 95 1014.9
20260502234044 57 0 0.0 0.0 0.00 0.09 0.00 95 1015.1
20260502233545 57 0 0.0 0.0 0.00 0.09 0.00 95 1015.1
20260502233057 57 0 0.0 0.0 0.00 0.09 0.00 95 1015.2
20260502232544 57 0 0.0 0.0 0.00 0.09 0.00 95 1015.2
20260502232047 57 0 0.0 0.0 0.00 0.09 0.00 95 1015.2
20260502231551 57 0 0.0 0.0 0.00 0.09 0.00 95 1015.3
20260502231047 57 0 0.0 0.0 0.00 0.09 0.00 95 1015.4
20260502230547 57 0 0.0 0.0 0.00 0.09 0.00 95 1015.4
20260502230055 57 0 0.0 0.0 0.00 0.09 0.00 94 1015.4
20260502225546 57 0 0.0 0.0 0.00 0.09 0.00 94 1015.4
20260502225045 57 0 0.0 0.0 0.00 0.09 0.00 94 1015.4
20260502224556 57 0 0.0 0.0 0.00 0.09 0.00 94 1015.4
20260502224046 57 0 0.0 0.0 0.00 0.09 0.00 94 1015.4
20260502223548 57 0 0.0 0.0 0.00 0.09 0.00 94 1015.4
20260502223056 57 0 0.0 0.0 0.00 0.09 0.00 94 1015.4
20260502222545 57 0 0.0 0.0 0.00 0.09 0.00 94 1015.5
20260502222048 57 0 0.0 0.0 0.00 0.09 0.00 94 1015.5
20260502221557 57 0 0.0 0.0 0.00 0.09 0.00 94 1015.5
20260502221044 58 0 0.0 0.0 0.00 0.09 0.00 94 1015.6
20260502220547 58 0 0.0 0.0 0.00 0.09 0.00 94 1015.6
20260502220057 58 0 0.0 0.0 0.00 0.09 0.00 94 1015.6
20260502215547 58 0 0.0 0.0 0.00 0.09 0.09 93 1015.8
20260502215044 58 0 0.0 0.0 0.00 0.09 0.09 93 1015.7
20260502214601 58 0 0.0 0.0 0.00 0.09 0.09 93 1015.9
20260502214046 59 0 0.0 0.0 0.00 0.09 0.09 93 1015.8
20260502213546 59 0 0.0 0.0 0.00 0.09 0.09 93 1015.9
20260502213100 59 0 0.0 0.0 0.00 0.09 0.09 93 1015.9
20260502212545 59 0 0.0 0.0 0.00 0.09 0.09 93 1016.0
20260502212045 59 0 0.0 0.0 0.01 0.09 0.09 93 1016.0
20260502211555 59 0 0.0 0.0 0.01 0.09 0.09 93 1016.2
20260502211045 59 0 0.0 0.0 0.01 0.09 0.09 93 1016.4
20260502210549 59 0 0.0 0.0 0.01 0.09 0.09 93 1016.5
20260502205546 60 0 0.0 0.0 0.04 0.09 0.09 92 1016.7
20260502205045 60 0 0.0 0.0 0.04 0.09 0.09 92 1016.9
20260502204559 60 0 0.0 0.0 0.03 0.08 0.08 92 1017.1
20260502204044 60 0 0.0 0.0 0.03 0.08 0.08 92 1017.0
20260502203546 60 0 0.0 0.0 0.03 0.08 0.08 92 1017.0
20260502203057 60 0 0.0 0.0 0.03 0.08 0.08 92 1017.1
20260502202545 60 0 0.0 0.0 0.03 0.08 0.08 92 1017.0
20260502202045 60 0 0.0 3.0 0.03 0.07 0.07 91 1017.1
20260502201611 60 0 0.0 6.0 0.03 0.07 0.07 91 1017.4